Location: Knobs
(40.8333°S, 175.2333°E)
Time: 01:35:38
(UTC+00:00)

IGS 5A - Pass Details

Date: 12 June 2024
Orbit: 569 x 572 km, 97.4° (Epoch: 06 July)

Event Time Altitude Azimuth Distance (km) Brightness Sun altitude
Rises 18:34:11 0° 14° (NNE) 2,770 7.4 -12.2°
Reaches altitude 10° 18:36:19 10° 14° (NNE) 1,881 6.5 -11.9°
Maximum altitude 18:40:24 89° 109° (ESE) 585 3.4 -11.1°
Drops below altitude 10° 18:44:33 10° 192° (SSW) 1,907 5.8 -10.4°
Enters shadow 18:47:33 -3° 191° (S) 3,165 6.9 -9.9°
